FW0689 Weather Reports


Display with metric or nautical units.
time (UTC)temp
F
wind
direction
speed
MPH
gust
MPH
rain 1hr
in
rain 24hr
in
rain mn
in
humidity
%
barometer
mb
20260505212325 49 18 0.0 0.0 0.00 0.00 0.00 40 1014.7
20260505211425 49 17 0.0 0.0 0.00 0.00 0.00 40 1014.6
20260505210426 49 13 0.0 0.0 0.00 0.00 0.00 40 1014.8
20260505203427 49 5 0.0 0.0 0.00 0.00 0.00 40 1014.8
20260505202426 49 356 0.0 0.0 0.00 0.00 0.00 40 1014.9
20260505194627 50 10 0.0 0.0 0.00 0.00 0.00 39 1014.8
20260505193725 50 360 0.0 0.0 0.00 0.00 0.00 39 1014.9
20260505192824 50 1 0.0 0.0 0.00 0.00 0.00 39 1014.7
20260505191826 50 353 0.0 0.0 0.00 0.00 0.00 39 1014.8
20260505190826 50 5 0.0 0.0 0.00 0.00 0.00 39 1014.6
20260505184825 51 16 0.0 0.0 0.00 0.00 0.00 39 1014.5
20260505183825 51 7 0.0 0.0 0.00 0.00 0.00 39 1014.4
20260505182825 51 9 0.0 0.0 0.00 0.00 0.00 39 1014.3
20260505181826 51 2 0.0 0.0 0.00 0.00 0.00 39 1014.4
20260505175826 51 353 0.0 0.0 0.00 0.00 0.00 39 1014.5
20260505174925 51 357 0.0 0.0 0.00 0.00 0.00 39 1014.5
20260505173926 52 1 0.0 0.0 0.00 0.00 0.00 39 1014.5
20260505172927 52 11 0.0 0.0 0.00 0.00 0.00 39 1014.6
20260505171925 52 10 0.0 0.0 0.00 0.00 0.00 39 1014.5
20260505170926 52 355 0.0 0.0 0.00 0.00 0.00 39 1014.5
20260505170025 52 358 0.0 0.0 0.00 0.00 0.00 39 1014.6
20260505165124 52 24 0.0 0.0 0.00 0.00 0.00 39 1014.7
20260505163224 52 8 0.0 0.0 0.00 0.00 0.00 39 1014.8
20260505161226 52 12 0.0 0.0 0.00 0.00 0.00 38 1014.8
20260505160226 52 354 0.0 0.0 0.00 0.00 0.00 38 1014.8
20260505153325 52 358 0.0 0.0 0.00 0.00 0.00 39 1015.1
20260505152425 53 2 0.0 0.0 0.00 0.00 0.00 39 1015.1
20260505151426 53 16 0.0 0.0 0.00 0.00 0.00 39 1015.1
20260505150424 53 2 0.0 0.0 0.00 0.00 0.00 39 1015.1
20260505140425 53 17 0.0 0.0 0.00 0.00 0.00 39 1015.4
20260505124526 52 8 0.0 0.0 0.00 0.00 0.00 39 1016.0
20260505123525 52 48 0.0 0.0 0.00 0.00 0.00 39 1016.0
20260505122525 53 49 0.0 0.0 0.00 0.00 0.00 39 1016.0
20260505121624 53 17 0.0 0.0 0.00 0.00 0.00 39 1016.1
20260505120627 53 359 0.0 0.0 0.00 0.00 0.00 39 1016.1
20260505115642 53 22 0.0 0.0 0.00 0.00 0.00 39 1016.1
20260505114640 53 7 0.0 0.0 0.00 0.00 0.00 39 1016.1
20260505113624 53 9 0.0 0.0 0.00 0.00 0.00 39 1016.1
20260505112625 53 27 0.0 0.0 0.00 0.00 0.00 38 1016.1
20260505112526 53 9 0.0 0.0 0.00 0.00 0.00 39 1016.1
20260505110526 52 22 0.0 0.0 0.00 0.00 0.00 39 1016.2
20260505101625 52 21 0.0 0.0 0.00 0.00 0.00 39 1016.7
20260505100626 51 30 0.0 0.0 0.00 0.00 0.00 39 1016.5
20260505095626 51 39 0.0 0.0 0.00 0.00 0.00 39 1016.6
20260505094626 51 30 0.0 0.0 0.00 0.00 0.00 39 1016.7
20260505093626 51 21 0.0 0.0 0.00 0.00 0.00 39 1016.6
20260505092724 51 17 0.0 0.0 0.00 0.00 0.00 39 1016.7
20260505090726 50 11 0.0 0.0 0.00 0.00 0.00 38 1016.7
20260505085725 50 25 0.0 0.0 0.00 0.00 0.00 39 1016.7
20260505084726 50 63 0.0 0.0 0.00 0.00 0.00 39 1016.8
20260505083725 50 24 0.0 0.0 0.00 0.00 0.00 38 1016.8
20260505081725 49 50 0.0 0.0 0.00 0.00 0.00 38 1016.8
20260505080725 48 10 0.0 0.0 0.00 0.00 0.00 39 1016.7
20260505073827 48 33 0.0 0.0 0.00 0.00 0.00 39 1017.0
20260505072924 48 1 0.0 0.0 0.00 0.00 0.00 39 1017.1
20260505071925 48 12 0.0 0.0 0.00 0.00 0.00 39 1017.2
20260505070925 48 21 0.0 0.0 0.00 0.00 0.00 39 1017.1
20260505065927 47 22 0.0 0.0 0.00 0.00 0.00 39 1017.1
20260505064927 47 12 0.0 0.0 0.00 0.00 0.00 39 1017.0
20260505063926 47 28 0.0 0.0 0.00 0.00 0.00 39 1017.0
20260505062925 47 31 0.0 0.0 0.00 0.00 0.00 39 1016.9
20260505061925 47 18 0.0 0.0 0.00 0.00 0.00 39 1016.9
20260505060925 47 23 0.0 0.0 0.00 0.00 0.00 39 1016.9
20260505055941 47 34 0.0 0.0 0.00 0.00 0.00 39 1016.9
20260505054926 47 28 0.0 0.0 0.00 0.00 0.00 39 1016.8
20260505053925 47 22 0.0 0.0 0.00 0.00 0.00 40 1016.7
20260505052925 47 31 0.0 0.0 0.00 0.00 0.00 40 1016.8
20260505051925 47 21 0.0 0.0 0.00 0.00 0.00 39 1016.8
20260505051024 47 22 0.0 0.0 0.00 0.00 0.00 40 1016.8
20260505041126 48 15 0.0 0.0 0.00 0.00 0.00 40 1016.7
20260505040225 48 14 0.0 0.0 0.00 0.00 0.00 40 1016.7
20260505034226 48 38 0.0 0.0 0.00 0.00 0.00 40 1016.7
20260505033325 48 46 0.0 0.0 0.00 0.00 0.00 40 1016.6
20260505032325 48 15 0.0 0.0 0.00 0.00 0.00 40 1016.7
20260505031327 48 20 0.0 0.0 0.00 0.00 0.00 40 1016.9
20260505030425 48 26 0.0 0.0 0.00 0.00 0.00 40 1016.9
20260505025426 48 11 0.0 0.0 0.00 0.00 0.00 40 1016.9
20260505024425 48 18 0.0 0.0 0.00 0.00 0.00 39 1017.0
20260505023425 48 1 0.0 0.0 0.00 0.00 0.00 39 1017.1
20260505022426 48 11 0.0 0.0 0.00 0.00 0.00 39 1017.1
20260505015541 49 13 0.0 0.0 0.00 0.00 0.00 39 1017.1
20260505014541 49 11 0.0 0.0 0.00 0.00 0.00 39 1017.2
20260505012525 49 20 0.0 0.0 0.00 0.00 0.00 39 1017.3
20260505011526 49 31 0.0 0.0 0.00 0.00 0.00 39 1017.2
20260505010526 49 13 0.0 0.0 0.00 0.00 0.00 39 1017.3
20260505005525 49 11 0.0 0.0 0.00 0.00 0.00 39 1017.3
20260505004624 49 14 0.0 0.0 0.00 0.00 0.00 38 1017.3
20260505003625 49 14 0.0 0.0 0.00 0.00 0.00 39 1017.4
20260505002724 50 5 0.0 0.0 0.00 0.00 0.00 39 1017.3
20260505000726 50 25 0.0 0.0 0.00 0.00 0.00 38 1017.4
20260504235726 50 13 0.0 0.0 0.00 0.00 0.00 38 1017.5
20260504234726 50 348 0.0 0.0 0.00 0.00 0.00 38 1017.7
20260504233824 50 1 0.0 0.0 0.00 0.00 0.00 38 1017.7
20260504232825 51 357 0.0 0.0 0.00 0.00 0.00 38 1017.8
20260504231826 51 7 0.0 0.0 0.00 0.00 0.00 38 1017.8
20260504230825 51 355 0.0 0.0 0.00 0.00 0.00 38 1017.9
20260504223926 51 13 0.0 0.0 0.00 0.00 0.00 38 1017.9
20260504222926 52 1 0.0 0.0 0.00 0.00 0.00 38 1018.0
20260504221926 52 7 0.0 0.0 0.00 0.00 0.00 38 1018.0
20260504215111 52 3 0.0 0.0 0.00 0.00 0.00 37 1018.1
20260504214111 52 4 0.0 0.0 0.00 0.00 0.00 37 1018.2
20260504214011 52 359 0.0 0.0 0.00 0.00 0.00 37 1018.2